User: anonymous   Login
Location: Deer Path Park
(40.5570°N, 74.8450°W)
Time: 12:22:47
(UTC-05:00)
Language:

Iridium 49 - Orbit

View from above orbital plane
View from above orbital plane
View from above satellite
View from above satellite

Ground track
Ground track

The orbit data is extracted from the following two-line orbital elements,

1 25108U 97082E   14351.41791652  .00000715  00000-0  24817-3 0   372
2 25108 086.3977 276.9399 0002217 099.2977 038.6475 14.34221556889548
Epoch (UTC): 17 December 2014 10:01:47
Eccentricity: 0.0002217
inclination: 86.3977°
perigee height: 776 km
apogee height: 779 km
right ascension of ascending node: 276.9399°
argument of perigee: 99.2977°
revolutions per day: 14.34221556
mean anomaly at epoch: 38.6475°
orbit number at epoch: 88954

The dashed part of the orbit path shows where the satellite is in the earth's shadow,  

DLR